Location: 22
(39.7117°N, 89.5929°W)
Time: 12:19:05
(UTC-05:00)

ISS - Visible Passes

Search period start: 25 July 2024 00:00
Search period end: 04 August 2024 00:00
Orbit: 409 x 423 km, 51.6° (Epoch: 25 July)

Date Brightness Start Highest point End Pass type
(mag) Time Alt. Az. Time Alt. Az. Time Alt. Az.
25 Jul -2.8 21:25:33 10° NW 21:28:41 39° NNE 21:30:45 18° E visible
25 Jul -1.2 23:02:36 10° W 23:03:38 16° W 23:03:38 16° W visible
26 Jul -3.0 22:13:36 10° WNW 22:16:43 40° SW 22:16:46 40° SW visible
27 Jul -3.8 21:24:47 10° NW 21:28:06 76° SW 21:29:56 24° SE visible
28 Jul -1.4 22:13:57 10° W 22:15:44 14° SW 22:16:01 14° SW visible
29 Jul -2.0 21:24:24 10° WNW 21:27:10 24° SW 21:29:16 14° S visible
